This is the latest recevied weather packets stored in our database for station/object KK6LVQ-13. If no packets are shown the sender has not sent any weather packets the latest 10 day(s).
| Time | Temp. | Humidity | Pressure | Rain* | Wind** | Luminosity | Snow |
|---|---|---|---|---|---|---|---|
| 1778104351 | 22.78° C | 62% | 1023.2 hPa | 0 mm | - | 712 W/m² | - |
| 1778104048 | 22.78° C | 63% | 1023 hPa | 0 mm | - | 722 W/m² | - |
| 1778103745 | 22.22° C | 63% | 1023.3 hPa | 0 mm | - | 730 W/m² | - |
| 1778103443 | 22.78° C | 62% | 1023.3 hPa | 0 mm | - | 736 W/m² | - |
| 1778103140 | 22.78° C | 62% | 1023.2 hPa | 0 mm | - | 743 W/m² | - |
| 1778102837 | 22.78° C | 60% | 1023.5 hPa | 0 mm | - | 752 W/m² | - |
| 1778102533 | 22.78° C | 62% | 1023.6 hPa | 0 mm | - | 768 W/m² | - |
| 1778102228 | 23.33° C | 62% | 1023.4 hPa | 0 mm | - | 761 W/m² | - |
| 1778101925 | 22.78° C | 62% | 1023.5 hPa | 0 mm | - | 766 W/m² | - |
| 1778101622 | 22.22° C | 60% | 1023.6 hPa | 0 mm | - | 771 W/m² | - |
| 1778101319 | 22.78° C | 61% | 1023.7 hPa | 0 mm | - | 776 W/m² | - |
| 1778101016 | 22.78° C | 63% | 1023.5 hPa | 0 mm | - | 782 W/m² | - |
| 1778100711 | 22.22° C | 62% | 1023.7 hPa | 0 mm | - | 797 W/m² | - |
| 1778100409 | 22.78° C | 61% | 1023.7 hPa | 0 mm | - | 796 W/m² | - |
| 1778100105 | 22.78° C | 62% | 1023.7 hPa | 0 mm | - | 794 W/m² | - |
| 1778099804 | 22.78° C | 62% | 1023.8 hPa | 0 mm | - | 813 W/m² | - |
| 1778099500 | 21.67° C | 63% | 1023.9 hPa | 0 mm | - | 810 W/m² | - |
| 1778099198 | 22.78° C | 62% | 1024 hPa | 0 mm | - | 795 W/m² | - |
| 1778098894 | 23.33° C | 55% | 1023.9 hPa | 0 mm | - | 798 W/m² | - |
| 1778098591 | 22.22° C | 57% | 1024 hPa | 0 mm | - | 799 W/m² | - |
| 1778098287 | 22.22° C | 58% | 1024 hPa | 0 mm | - | 799 W/m² | - |
| 1778097984 | 22.78° C | 56% | 1024.2 hPa | 0 mm | - | 676 W/m² | - |
| 1778097681 | 22.78° C | 58% | 1024.1 hPa | 0 mm | - | 801 W/m² | - |
| 1778097377 | 22.22° C | 61% | 1024.3 hPa | 0 mm | - | 817 W/m² | - |
| 1778097074 | 21.67° C | 61% | 1024.3 hPa | 0 mm | - | 883 W/m² | - |
* Rain latest hour (hover to see other rain measurements)
** Current wind speed in m/s (hover to see current wind gust speed)